Regional Weather Roundup
Issued by NWS

Home | Current Version | Previous Version | Text Only | Print | Product List | Glossary Off
Versions: 1 2 3 4 5 6 7 8 9 10 11 12 13 14 15 16 17 18 19 20 21 22 23 24 25 26 27 28 29 30 31 32 33 34 35 36 37 38 39 40 41 42 43 44 45 46 47 48 49 50

000
ASUS43 KOAX 300602
RWRNE

WEATHER ROUNDUP FOR NEBRASKA
NATIONAL WEATHER SERVICE OMAHA NE
100 AM CDT MON MAY 30 2016

NOTES: SATELLITE DATA IS BEING USED TO AUGMENT CLOUD COVER ABOVE
       12000 FEET.
       "FAIR" INDICATES FEW OR NO CLOUDS BELOW 12,000 FEET WITH NO
       SIGNIFICANT WEATHER AND/OR OBSTRUCTIONS TO VISIBILITY.

  * THESE STATIONS DO NOT REPORT WEATHER SUCH AS RAIN...SNOW OR FOG.

NEZ001>004-019>022-054>056-300700-
NEBRASKA PANHANDLE

CITY           SKY/WX    TMP DP  RH WIND       PRES   REMARKS
SCOTTSBLUFF    CLOUDY    59  44  57 SE9       30.03S
6HR MIN TEMP:  54; 6HR MAX TEMP:  74;

ALLIANCE       CLOUDY    58  53  84 S13       30.03R
6HR MIN TEMP:  53; 6HR MAX TEMP:  75;

CHADRON        CLOUDY    52  48  86 W6        29.97R
6HR MIN TEMP:  51; 6HR MAX TEMP:  81;

SIDNEY         CLOUDY    56  51  84 S13       30.08S
6HR MIN TEMP:  56; 6HR MAX TEMP:  76; 6HR PCP:  0.04;

$$

NEZ057>060-069>072-079>082-300700-
SOUTHWEST NEBRASKA

CITY           SKY/WX    TMP DP  RH WIND       PRES   REMARKS
NORTH PLATTE   CLOUDY    61  53  75 W8        30.07R
6HR MIN TEMP:  58; 6HR MAX TEMP:  78; 6HR PCP:  0.52;

IMPERIAL       LGT RAIN  60  52  74 S8        30.13F
6HR MIN TEMP:  60; 6HR MAX TEMP:  69; 6HR PCP:  0.07;

LEXINGTON      CLOUDY    65  51  59 S10       30.05R
MCCOOK         CLOUDY    64  52  64 SE8       30.07R
6HR MIN TEMP:  63; 6HR MAX TEMP:  69; 6HR PCP:  0.05;

$$

NEZ005>010-023>029-035>040-094-300700-
NORTH CENTRAL NEBRASKA

CITY           SKY/WX    TMP DP  RH WIND       PRES   REMARKS
VALENTINE      CLOUDY    65  51  60 S8        30.00F
6HR MIN TEMP:  64; 6HR MAX TEMP:  79;

AINSWORTH      RAIN      64  53  67 SW17G25   30.02F
BROKEN BOW     CLOUDY    60  56  86 CALM      30.03R
6HR MIN TEMP:  60; 6HR MAX TEMP:  76; 6HR PCP:  0.16;

ORD            CLOUDY    68  59  73 S10       30.00S
6HR MIN TEMP:  67; 6HR MAX TEMP:  80; 6HR PCP:  0.03;

$$

NEZ041-046>049-061>064-073>077-083>087-300700-
SOUTH CENTRAL NEBRASKA

CITY           SKY/WX    TMP DP  RH WIND       PRES   REMARKS
GRAND ISLAND   MOCLDY    69  51  52 SW18      30.04S
6HR MIN TEMP:  67; 6HR MAX TEMP:  74;

HASTINGS       CLOUDY    66  52  60 S8        30.06S
6HR MIN TEMP:  65; 6HR MAX TEMP:  75; 6HR PCP:  0.06;

KEARNEY *      CLOUDY    64  50  59 S15       30.07R
YORK           CLOUDY    66  54  63 SW13      30.02F
$$

NEZ011>018-030>034-042>045-300700-
NORTHEAST NEBRASKA

CITY           SKY/WX    TMP DP  RH WIND       PRES   REMARKS
NORFOLK        CLOUDY    68  56  65 CALM      30.02R
6HR MIN TEMP:  66; 6HR MAX TEMP:  79;

BLAIR          CLOUDY    71  60  67 CALM      30.01S
FREMONT        CLOUDY    69  59  71 CALM      30.02R
TEKAMAH          N/A    N/A N/A N/A MISG      30.00S
$$

NEZ050>053-065>068-078-088>093-300700-
SOUTHEAST NEBRASKA

CITY           SKY/WX    TMP DP  RH WIND       PRES   REMARKS
LINCOLN        CLOUDY    67  62  84 CALM      30.01F
6HR MIN TEMP:  67; 6HR MAX TEMP:  81;

OMAHA EPPLEY   CLOUDY    73  61  65 SE7       30.00F
6HR MIN TEMP:  71; 6HR MAX TEMP:  85;

FALLS CITY     CLOUDY    70  64  81 S7        30.03S
6HR MIN TEMP:  70; 6HR MAX TEMP:  83;

PLATTSMOUTH    CLOUDY    74  61  64 S13       30.01F
$$

NEZ044-045-051>053-067-300700-
OMAHA AREA

CITY           SKY/WX    TMP DP  RH WIND       PRES   REMARKS
OMAHA EPPLEY   CLOUDY    73  61  65 SE7       30.00F
6HR MIN TEMP:  71; 6HR MAX TEMP:  85;

BLAIR          CLOUDY    71  60  67 CALM      30.01S
FREMONT        CLOUDY    69  59  71 CALM      30.02R
PLATTSMOUTH    CLOUDY    74  61  64 S13       30.01F
$$




USA.gov is the U.S. government's official web portal to all federal, state and local government web resources and services.